Flag for Australia Weather past 2 weeks in Bairnsdale, Victoria, Australia

Now
86 °F

Pleasantly warm.


Feels Like: 83 °F
Forecast: 52 / 69 °F
Wind: 15 mph from Northwest

Location: Bairnsdale Airport

Current Time: Apr 1, 2015 at 3:48:58 PM

Latest Report: Apr 1, 2015 at 3:00 PM


Visibility: N/A

Pressure: 29.95 "Hg

Humidity: 28%

Dew point: 49 °F

Location of BairnsdaleLocation

Historic Weather in Bairnsdale — Graph

°F

Bairnsdale temperature yesterday

Maximum temperature yesterday: 71 °F (at 1:00 PM)
Minimum temperature yesterday: 43 °F (at 7:00 AM)
Average temperature yesterday: 57 °F

Past Weeks' High & Low Weather Summary

 TemperatureHumidityPressure
High96 °F (Mar 19, 3:00 PM)100% (Mar 30, 4:00 AM)30.36 "Hg (Mar 30, 4:00 AM)
Low42 °F (Mar 22, 7:00 AM)21% (Mar 19, 3:00 PM)29.56 "Hg (Mar 18, 7:00 AM)
Average60 °F73%30.03 "Hg
* Reported Mar 17 1:00 PM — Apr 1 1:00 PM, Bairnsdale, Weather by CustomWeather, © 2015

Note: Actual official high and low records may vary slightly from our data, if they occured in-between our weather recording intervals... More about our weather records

Advertising

Bairnsdale weather history for previous 24 hours

 ConditionsComfort  
Time TempWeatherWind HumidityBarometerVisibility
1:00 PM
Wed, Apr 1
83 °FPleasantly warm.9 mph33%30.01 "HgN/A
12:00 PM84 °FPleasantly warm.14 mph30%30.05 "HgN/A
10:00 AM74 °FMild.7 mph49%30.11 "HgN/A
9:00 AM58 °FCool.3 mph100%30.12 "HgN/A
7:00 AM52 °FCool.6 mph100%30.12 "HgN/A
6:00 AM51 °FCool.6 mph100%30.12 "Hg1 mi
4:00 AM51 °FCool.5 mph100%30.14 "HgN/A
3:00 AM51 °FPassing clouds.7 mph99%30.16 "Hg0 mi
1:00 AM52 °FCool.6 mph99%30.20 "HgN/A
12:00 AM50 °FLow clouds.6 mph99%30.22 "Hg0 mi
10:00 PM
Tue, Mar 31
53 °FCool.6 mph99%30.22 "HgN/A
9:00 PM54 °FCool.6 mph97%30.22 "Hg3 mi
7:00 PM64 °FMild.5 mph84%30.21 "HgN/A
6:00 PM66 °FPassing clouds.10 mph78%30.21 "HgN/A
4:00 PM70 °FMild.14 mph66%30.20 "HgN/A
3:00 PM71 °FMild.13 mph62%30.21 "HgN/A
Weather by CustomWeather, © 2015

See weather overviewHow to use our weather pages